パンスターズ彗星

464P/PanSTARRS (2012)

English version
Home page
Updated on July 27, 2023

---------------------------------------------------------------------

・ プロフィール

符号 464P/2014 OL465
発見日 2014年7月25日
発見光度 21.5等
発見者 Pan-STARRS 1 telescope (Haleakala)

・ 軌道要素

                    Epoch = 2012 Dec. 19.0 TT
     T = 2012 Dec. 29.13025 TT        Peri. = 267.52913
     e = 0.2811155                    Node  = 309.73434 2000.0
     q = 3.3685450 AU                 Incl. =  21.66903
       a =  4.6857947 AU   n = 0.09716933   P =  10.14 years

・ 光度変化

        H = 15.5  G = 0.15

---------------------------------------------------------------------

軌道要素は、CBET 5262に掲載されたものです。
光度グラフはComet for Windowsで作成したものです。

---------------------------------------------------------------------

Copyright(C) Seiichi Yoshida (comet@aerith.net). All rights reserved.